DELTA 1 DEB, 7192

Orbit data source: Space-Track

DELTA 1 DEB, 7192 is space debris in LEO originally from a launch on Tue, 06 Nov 1973 UTC launched from the Air Force Western Test Range (AFWTR). Debris objects in space refer to the collection of defunct objects orbiting the Earth. Examples of debris include non-operational satellites, rocket bodies, and fragments generated from explosions, collisions, or faulty payload assembly.

Loading next visibility...
Identifier
7192, 1973-086FA
Orbit
LEO
Country
Flag of USUS
Related business
Manufacturer
Unknown
Mission
Spacecraft
Bus & Motor
Unknown
Mass
Unknown
Launch date (UTC)
1973-11-06 (52 years ago)
Launch vehicle
Unknown
Launch site
Air Force Western Test Range (AFWTR)
Object type
Payload
Rocket body
Debris
Shape & HBR
Unknown shape, 0.2 m
Radar Cross Section
Small (<0.1 m²)

Expand to show TLE details & history
Last TLE update: 17 hours ago

TLE from 17 hours ago
0 DELTA 1 DEB
1  7192U 73086FA  26122.31469145  .00000049  00000-0  13634-2 0  9991
2  7192 102.1916 266.6595 0440430 315.8315  68.5309 11.59907261221806
Epoch: 2026-05-02T07:33Z
TLE epoch observation values (Epoch: 2026-05-02T07:33:09.341Z)
Latitude
28.47367°
Longitude
-73.56089°
Altitude
1,749.905 km
Speed
7.057 km/s
True Right ascension
17h 19m 50s
True Declination
28° 20' 51"
Sunlit
Object was in daylight at epoch
Visualization orbit readout
Latitude
Unknown
Longitude
Unknown
Altitude
Unknown
Speed
Unknown
Apparent Right ascension
Unknown
Apparent Declination
Unknown
Sunlit
N/A
Visualization observer readout
Local Sidereal Time
08:18:45
Azimuth
Unknown
Elevation
Unknown
Doppler factor
Unknown
Orbital elements
Apogee altitude
2,226.173 km
Perigee altitude
1,500.227 km
Semi-major axis
8,241.337 km
Eccentricity
0.04404
Inclination
102.1916°
RAAN
266.6595°
Arg. of periapsis
315.8315°
True anomaly
73.31858°
Mean anomaly
68.5309°
Eccentric anomaly
70.91568°
Mean motion
2.90099 °/min
Orbital period
124.1 mins
BSTAR
0.0013634
Loading maneuver chart data...
Computing Atmospheric mass density...
Loading historical data...
Loading historical data...
Loading historical data...
Loading historical data...
Loading historical data...
Loading historical data...
Loading historical data...

Documentation

Showing up to 5 results
|